[[{"header":{"parameterUnit":"m.s-1","parameterCategory":1,"la1":30.2991,"la2":30.254,"lo1":-89.0895,"lo2":-89.0444,"dy":0.0017,"dx":0.0017,"nx":28,"ny":28,"refTime":"2023-08-13T09:00:00:Z","depth":0,"parameterNumber":2,"parameterNumberName":"U-component_of_WINDS"},"data":[0,0,0,0,0,0,0,0,0,0,0,0,0,0,0,0,0,0,0,0,0,0,0,0,0,0,0,0,0,0,0,0,0,0,0,0,0,0,0,0,0,0,0,0,0,0,0,0,0,0,0,0,0,0,0,0,0,0,2.5015,2.5015,0,2.5037,2.5038,2.5038,2.5018,2.5017,2.5016,2.5015,2.504,2.5041,2.5043,0,0,0,0,0,0,0,0,0,0,0,0,0,2.4958,2.4959,2.5015,2.5015,2.5016,2.5037,2.5038,2.5038,2.5018,2.5017,2.5016,2.5015,2.5039,2.5041,2.5043,0,0,0,0,0,0,0,0,0,0,0,0,0,2.4982,2.4959,2.5015,2.5008,2.5008,2.5037,2.5038,2.5038,2.5018,2.5017,2.5016,2.5014,2.5039,2.5041,2.5043,2.5081,0,0,2.505,2.5051,0,0,0,0,0,0,0,0,2.498,2.4984,2.5009,2.5009,2.5008,2.5023,2.5027,2.5053,2.5018,2.5014,2.5015,2.5014,2.5036,2.5038,2.5045,2.5082,2.5083,2.505,2.5051,2.5052,2.5053,0,0,0,0,0,0,0,2.4979,2.4983,2.5024,2.5009,2.5009,2.5005,2.5007,2.5031,2.5032,2.5014,2.5013,2.5016,2.5035,2.5043,2.5045,2.5084,2.505,2.5052,2.5053,2.5054,2.5156,2.5157,0,0,0,0,0,0,2.4978,2.4982,2.5023,2.5025,2.4991,2.5007,2.5009,2.502,2.5031,2.5032,2.5017,2.5015,2.504,2.5043,2.5046,2.5093,2.5052,2.5054,2.5055,2.5154,2.5156,2.5158,0,0,0,0,0,0,2.4976,2.4981,2.5022,2.5003,2.5008,2.5009,2.5021,2.5021,2.5029,2.5033,2.5033,2.5025,2.5039,2.5043,2.5073,2.5093,2.5055,2.5057,2.5153,2.5155,2.5157,2.5186,0,0,0,0,0,0,2.4975,2.4981,2.4995,2.5003,2.5009,2.5048,2.5023,2.5022,2.5032,2.503,2.504,2.5041,2.5038,2.507,2.5075,2.5096,2.5059,2.5151,2.5154,2.5156,2.5183,2.5188,2.5193,0,0,0,0,0,2.4973,2.5002,2.4996,2.5001,2.5026,2.5049,2.5052,2.5048,2.5034,2.5048,2.5051,2.5041,2.509,2.5073,2.5079,2.51,2.515,2.5153,2.5156,2.5181,2.5187,2.5193,0,0,0,0,0,0,2.4996,2.5003,2.4996,2.5028,2.5038,2.5046,2.5063,2.5055,2.507,2.5067,2.5062,2.5065,2.5097,2.5101,2.5082,2.5139,2.5118,2.5122,2.5134,2.5141,2.5146,2.5144,2.506,0,0,0,0,0,2.5005,2.5023,2.5028,2.5056,2.5061,2.5062,2.5072,2.5068,2.5078,2.5082,2.5088,2.5099,2.5117,2.5129,2.5146,2.5183,2.5186,2.5201,2.5206,2.5211,2.5215,2.5237,2.5244,2.5168,2.5168,2.5168,0,0,2.5023,2.5029,2.5041,2.5061,2.5068,2.5088,2.5065,2.5086,2.5101,2.5086,2.5114,2.5119,2.5131,2.5166,2.5181,2.517,2.5237,2.5215,2.5218,2.522,2.5241,2.5248,2.5254,2.517,2.517,2.517,0,0,2.5067,2.5073,2.5098,2.5106,2.5117,2.5117,2.5124,2.5133,2.5135,2.5164,2.5153,2.5171,2.5202,2.5212,2.5221,2.527,2.5262,2.5276,2.5303,2.5325,2.5331,2.5336,2.5355,2.5362,2.528,2.528,2.528,0,2.5089,2.5117,2.5112,2.5134,2.5144,2.5131,2.5157,2.5165,2.5182,2.519,2.5178,2.5218,2.5225,2.5262,2.5274,2.5282,2.529,2.5275,2.533,2.5336,2.5341,2.5359,2.5366,2.5282,2.5282,2.5282,2.5281,0,2.5144,2.5164,2.5183,2.5199,2.5211,2.5235,2.5235,2.5248,2.5244,2.5246,2.5276,2.5285,2.5304,2.5312,2.5308,2.535,2.5343,2.5331,2.531,2.535,2.5367,2.5373,2.5285,2.5284,2.5283,2.5283,0,0,2.5202,2.5216,2.5224,2.5232,2.5244,2.526,2.5284,2.5303,2.5315,2.5327,2.5349,2.5376,2.5365,2.5376,2.5373,2.5391,2.5432,2.5377,2.5377,2.5388,2.548,2.549,2.5498,2.5426,2.5428,2.5429,2.548,0,2.5248,2.5289,2.5286,2.5326,2.5345,2.5334,2.5355,2.5366,2.5369,2.5387,2.539,2.541,2.5394,2.5401,2.5419,2.5423,2.5451,2.5419,2.5447,2.5448,2.5445,2.5507,2.5517,2.5564,2.5486,2.5487,2.5488,0,2.5306,2.532,2.5362,2.5373,2.5381,2.54,2.5418,2.5435,2.5447,2.5448,2.5461,2.5455,2.5481,2.5459,2.5496,2.5475,2.5487,2.5491,2.5493,2.5496,2.5471,2.5512,2.5579,2.5587,2.5498,2.5498,2.5497,0,2.5346,2.5376,2.5405,2.5412,2.5425,2.544,2.5446,2.5457,2.5469,2.5485,2.5493,2.5512,2.5522,2.5538,2.5538,2.5522,2.5576,2.5554,2.5579,2.5579,2.5591,2.559,2.5662,2.5597,2.5597,2.5597,2.5596,0,2.5397,2.5423,2.5423,2.5442,2.5471,2.5468,2.5498,2.5503,2.5514,2.5533,2.5525,2.5544,2.5542,2.5562,2.5563,2.5594,2.5599,2.5601,2.5601,2.5602,2.5602,2.561,2.5607,2.5599,2.5598,2.5598,2.5597,0,2.5447,2.5447,2.5479,2.5489,2.5493,2.5514,2.5524,2.5542,2.5544,2.557,2.5576,2.558,2.5603,2.5605,2.5631,2.5632,2.567,2.5666,2.5666,2.5665,2.5691,2.5689,2.577,2.5782,2.5709,2.5709,2.571,0,2.548,2.55,2.5512,2.5525,2.5532,2.5552,2.5565,2.5563,2.5576,2.5593,2.561,2.5632,2.5649,2.5687,2.5693,2.5714,2.5711,2.5738,2.5714,2.5715,2.5713,2.5712,2.5715,2.5743,2.5744,2.5744,2.5745,0,2.5539,2.5538,2.5556,2.5575,2.559,2.5604,2.5618,2.5629,2.5629,2.5645,2.5668,2.5682,2.5709,2.5732,2.5753,2.576,2.5754,2.5752,2.576,2.5761,2.5761,2.5763,2.568,2.5751,2.575,2.575,2.5749,2.5749,2.5582,2.56,2.5612,2.5633,2.5643,2.5656,2.5674,2.5679,2.5698,2.572,2.5718,2.5745,2.5758,2.5785,2.5795,2.5816,2.5807,2.5817,2.582,2.5822,2.5826,2.5757,2.582,2.582,2.5819,2.5819,2.5819,0,2.5641,2.5649,2.5668,2.5687,2.5704,2.5696,2.5711,2.5726,2.5749,2.5762,2.578,2.5807,2.583,2.5838,2.586,2.5876,2.5873,2.5882,2.5881,2.5883,2.5832,2.5824,2.5884,2.5884,2.5884,2.5884,2.5884,2.5884,2.5674,2.5705,2.5706,2.5743,2.575,2.5775,2.5785,2.5798,2.5809,2.584,2.5858,2.5864,2.5876,2.5899,2.5919,2.5921,2.593,2.5941,2.5942,2.5893,2.5887,2.5881,2.5873,2.5942,2.5942,2.5991,2.5992,2.5992]},{"header":{"parameterUnit":"m.s-1","parameterCategory":1,"la1":30.2991,"la2":30.254,"lo1":-89.0895,"lo2":-89.0444,"dy":0.0017,"dx":0.0017,"nx":28,"ny":28,"refTime":"2023-08-13T09:00:00:Z","depth":0,"parameterNumber":3,"parameterNumberName":"V-component_of_WINDS"},"data":[0,0,0,0,0,0,0,0,0,0,0,0,0,0,0,0,0,0,0,0,0,0,0,0,0,0,0,0,0,0,0,0,0,0,0,0,0,0,0,0,0,0,0,0,0,0,0,0,0,0,0,0,0,0,0,0,0,0,-0.2558,-0.2558,0,-0.253,-0.253,-0.2529,-0.2516,-0.2516,-0.2516,-0.2516,-0.2486,-0.2486,-0.2485,0,0,0,0,0,0,0,0,0,0,0,0,0,-0.2601,-0.2601,-0.2558,-0.2558,-0.2558,-0.253,-0.253,-0.2529,-0.2516,-0.2516,-0.2516,-0.2516,-0.2487,-0.2486,-0.2485,0,0,0,0,0,0,0,0,0,0,0,0,0,-0.2579,-0.26,-0.2558,-0.2548,-0.2547,-0.253,-0.253,-0.2529,-0.2516,-0.2516,-0.2516,-0.2516,-0.2487,-0.2486,-0.2485,-0.2476,0,0,-0.2481,-0.248,0,0,0,0,0,0,0,0,-0.258,-0.2577,-0.255,-0.2548,-0.2547,-0.2527,-0.2534,-0.2511,-0.2516,-0.2528,-0.2516,-0.2516,-0.25,-0.2497,-0.2492,-0.2475,-0.2473,-0.2481,-0.248,-0.2479,-0.2479,0,0,0,0,0,0,0,-0.2582,-0.2578,-0.2547,-0.2549,-0.2548,-0.2545,-0.2541,-0.2529,-0.2514,-0.2527,-0.2526,-0.2523,-0.2499,-0.2493,-0.2491,-0.2473,-0.2481,-0.248,-0.2479,-0.2478,-0.2449,-0.2449,0,0,0,0,0,0,-0.2585,-0.258,-0.2548,-0.2546,-0.2564,-0.2544,-0.254,-0.2533,-0.2514,-0.2511,-0.2523,-0.2522,-0.2495,-0.2493,-0.249,-0.248,-0.2479,-0.2478,-0.2477,-0.2449,-0.2449,-0.2449,0,0,0,0,0,0,-0.2586,-0.2582,-0.2549,-0.2563,-0.2558,-0.2543,-0.2535,-0.2533,-0.2527,-0.2511,-0.2508,-0.252,-0.2495,-0.2492,-0.248,-0.2479,-0.2478,-0.2477,-0.2449,-0.2449,-0.2449,-0.2459,0,0,0,0,0,0,-0.2587,-0.2583,-0.2579,-0.2563,-0.2558,-0.2539,-0.2535,-0.2532,-0.2525,-0.2524,-0.2507,-0.2504,-0.2495,-0.2482,-0.2479,-0.2477,-0.2476,-0.2449,-0.2449,-0.2449,-0.2458,-0.2459,-0.246,0,0,0,0,0,-0.2589,-0.2582,-0.2579,-0.2575,-0.2553,-0.2539,-0.2536,-0.2526,-0.2525,-0.2521,-0.2511,-0.2505,-0.2479,-0.2481,-0.2477,-0.2475,-0.2449,-0.2449,-0.2449,-0.2458,-0.2459,-0.246,0,0,0,0,0,0,-0.2598,-0.258,-0.2576,-0.2564,-0.2554,-0.2537,-0.2532,-0.2527,-0.2516,-0.2515,-0.2503,-0.2499,-0.2489,-0.2481,-0.2483,-0.2466,-0.2464,-0.2463,-0.2472,-0.2473,-0.2473,-0.2475,-0.2475,0,0,0,0,0,-0.2599,-0.259,-0.2574,-0.2566,-0.2561,-0.2548,-0.2541,-0.2534,-0.2523,-0.2518,-0.2507,-0.2496,-0.2485,-0.2478,-0.2468,-0.2457,-0.2454,-0.2454,-0.2455,-0.2455,-0.2455,-0.245,-0.245,-0.2449,-0.2449,-0.2449,0,0,-0.2601,-0.259,-0.2584,-0.2567,-0.2558,-0.2549,-0.2544,-0.2534,-0.2527,-0.2516,-0.2505,-0.2497,-0.2483,-0.2473,-0.2467,-0.2465,-0.2454,-0.2455,-0.2456,-0.2455,-0.2449,-0.245,-0.245,-0.2448,-0.2448,-0.2448,0,0,-0.2599,-0.2589,-0.2581,-0.2573,-0.2559,-0.2551,-0.2549,-0.2534,-0.2528,-0.2517,-0.2509,-0.2501,-0.2483,-0.2474,-0.2467,-0.2464,-0.2458,-0.2461,-0.2463,-0.2459,-0.2459,-0.2459,-0.2458,-0.2458,-0.246,-0.246,-0.246,0,-0.2602,-0.2588,-0.2578,-0.2569,-0.2562,-0.2553,-0.2545,-0.2537,-0.2521,-0.2516,-0.2515,-0.2493,-0.2483,-0.2471,-0.247,-0.2465,-0.2463,-0.2462,-0.246,-0.2459,-0.2459,-0.2459,-0.2458,-0.2461,-0.2461,-0.2461,-0.246,0,-0.2593,-0.2584,-0.2579,-0.2565,-0.2557,-0.2549,-0.2538,-0.2532,-0.2526,-0.2518,-0.2507,-0.2495,-0.2483,-0.2479,-0.2473,-0.2466,-0.2466,-0.2462,-0.2459,-0.246,-0.2459,-0.2459,-0.2461,-0.2461,-0.2461,-0.2461,0,0,-0.2596,-0.2577,-0.2575,-0.2569,-0.2555,-0.2547,-0.2539,-0.2527,-0.2522,-0.2512,-0.2505,-0.2491,-0.2488,-0.248,-0.2473,-0.2469,-0.2468,-0.2466,-0.2465,-0.2467,-0.2461,-0.2464,-0.2464,-0.2464,-0.2464,-0.2464,-0.2463,0,-0.2592,-0.2577,-0.2568,-0.2557,-0.2549,-0.254,-0.2533,-0.2524,-0.2517,-0.2509,-0.25,-0.2491,-0.2487,-0.2483,-0.2478,-0.2469,-0.2467,-0.2469,-0.2458,-0.2458,-0.2462,-0.2464,-0.2466,-0.2465,-0.2462,-0.2462,-0.2462,0,-0.2586,-0.2576,-0.2564,-0.2552,-0.2548,-0.2542,-0.2531,-0.2524,-0.2513,-0.2508,-0.25,-0.2494,-0.2485,-0.2483,-0.2472,-0.2474,-0.2469,-0.2464,-0.2463,-0.2462,-0.246,-0.2462,-0.2465,-0.2465,-0.2461,-0.2461,-0.2461,0,-0.2589,-0.2574,-0.2565,-0.256,-0.2545,-0.2541,-0.2534,-0.2524,-0.2518,-0.2509,-0.2505,-0.2495,-0.2489,-0.2481,-0.2472,-0.2471,-0.2462,-0.2459,-0.2458,-0.2458,-0.2456,-0.2456,-0.2458,-0.2452,-0.2452,-0.2452,-0.2452,0,-0.2586,-0.2579,-0.2566,-0.2561,-0.2553,-0.2544,-0.2537,-0.253,-0.2521,-0.2514,-0.2506,-0.25,-0.2488,-0.2481,-0.2474,-0.2466,-0.2463,-0.2459,-0.2457,-0.246,-0.246,-0.2456,-0.2456,-0.2452,-0.2452,-0.2452,-0.2452,0,-0.2589,-0.258,-0.257,-0.2557,-0.2554,-0.2549,-0.2538,-0.2533,-0.2526,-0.2517,-0.2515,-0.2503,-0.2494,-0.2485,-0.2472,-0.2468,-0.246,-0.2457,-0.2464,-0.2463,-0.2463,-0.2463,-0.2461,-0.2461,-0.2456,-0.2456,-0.2456,0,-0.2587,-0.2582,-0.2569,-0.2564,-0.2559,-0.2551,-0.2545,-0.2536,-0.253,-0.2519,-0.2515,-0.2506,-0.2498,-0.2484,-0.2474,-0.2465,-0.2462,-0.2463,-0.2461,-0.2464,-0.2463,-0.2463,-0.2463,-0.2463,-0.2463,-0.2463,-0.2463,0,-0.2586,-0.2582,-0.2574,-0.2565,-0.2559,-0.2551,-0.2543,-0.254,-0.2529,-0.2523,-0.2514,-0.2508,-0.2497,-0.2488,-0.2478,-0.2471,-0.2466,-0.2464,-0.2463,-0.2466,-0.247,-0.2469,-0.2466,-0.2464,-0.2464,-0.2464,-0.2464,-0.2464,-0.2587,-0.2582,-0.2573,-0.2565,-0.2558,-0.2551,-0.2546,-0.2539,-0.2531,-0.2521,-0.2516,-0.2508,-0.2499,-0.2485,-0.2479,-0.2472,-0.247,-0.2469,-0.2469,-0.2469,-0.247,-0.2471,-0.247,-0.247,-0.247,-0.247,-0.247,0,-0.2585,-0.258,-0.2572,-0.2562,-0.2556,-0.2552,-0.2543,-0.2538,-0.2531,-0.2523,-0.2516,-0.2507,-0.2498,-0.2489,-0.248,-0.2477,-0.2474,-0.2475,-0.2475,-0.2474,-0.2471,-0.2473,-0.2477,-0.2477,-0.2477,-0.2477,-0.2477,-0.2477,-0.2584,-0.2577,-0.2572,-0.2561,-0.2555,-0.2547,-0.2543,-0.2537,-0.2531,-0.2521,-0.2514,-0.2508,-0.25,-0.2491,-0.2483,-0.2481,-0.2478,-0.2479,-0.2476,-0.2474,-0.2474,-0.2473,-0.2475,-0.2479,-0.2479,-0.2479,-0.2479,-0.2479]}]]